Wind_Speed
31 31 32 31 31 32 34 33 33 30 29 27 29 30 30 30 29 29 29 30 32 33 35 36 37 39 40 42 44 45 47 48 49 50 51 52 53 54 55 56 57 58 59 61
30 31 32 32 31 31 32 32 32 32 30 28 31 32 31 30 30 30 31 32 34 35 37 38 39 41 42 44 45 47 48 49 50 51 52 53 54 55 56 57 58 60 61 62
31 31 33 33 29 30 31 31 32 33 29 30 32 31 31 30 30 31 33 34 35 36 38 39 41 42 44 46 47 49 50 51 52 53 54 55 56 57 58 59 60 61 63 64
33 33 35 29 28 30 31 30 31 31 29 30 31 31 31 32 32 33 34 35 37 38 39 41 42 44 46 48 49 50 51 52 53 54 55 56 57 58 59 61 62 63 65 66
32 33 32 29 28 29 31 30 29 29 29 30 31 32 32 33 34 35 36 37 38 40 41 43 44 46 48 49 50 51 52 53 54 55 56 57 58 60 61 62 64 65 66 68
33 33 32 27 27 29 31 30 28 30 30 31 32 33 33 34 35 36 37 38 40 42 43 45 46 47 48 49 50 52 53 54 55 56 57 58 60 62 63 64 65 67 68 70
32 32 31 28 28 30 31 28 28 30 31 32 32 33 34 36 37 38 39 40 42 43 45 46 46 48 49 50 51 53 54 55 56 57 59 61 62 63 65 66 67 69 70 71
32 33 30 28 29 30 29 29 29 30 31 32 33 34 36 37 38 39 40 42 43 45 46 46 47 48 50 51 53 54 55 56 57 59 61 62 64 65 67 68 70 71 72 73
32 31 29 30 30 30 30 30 31 32 33 34 35 36 38 38 40 41 42 43 44 45 46 47 48 49 51 52 54 55 56 57 59 60 62 64 65 67 69 71 73 74 75 75
32 31 31 31 31 32 32 33 33 34 35 36 37 38 39 40 40 41 42 44 45 46 46 47 49 51 52 54 55 56 57 58 60 62 63 65 68 70 72 74 75 76 76 76
32 31 32 33 33 34 35 35 36 36 37 37 38 39 40 40 41 42 43 44 45 46 47 49 51 53 54 55 56 57 58 60 62 64 66 68 70 72 74 75 77 77 77 77
32 32 34 34 35 36 36 37 37 38 38 38 39 39 40 41 42 43 44 45 46 48 49 51 52 54 55 56 58 59 61 62 65 67 69 71 73 73 74 76 76 77 78 79
33 33 34 35 35 36 37 37 38 38 38 39 40 40 41 42 43 44 45 46 47 49 50 52 53 55 56 58 59 61 64 66 68 70 72 74 74 75 75 74 75 77 78 78
34 34 35 35 35 36 36 37 38 38 39 40 41 41 42 43 43 44 46 47 49 50 52 53 55 56 58 60 62 65 67 69 71 73 74 75 75 77 77 77 76 76 76 76
33 34 35 35 35 36 37 37 38 38 39 40 40 41 42 43 44 46 47 49 50 52 53 55 56 58 60 63 65 68 70 72 74 74 75 76 77 78 79 79 79 77 75 73
33 34 35 35 36 36 36 36 37 38 38 39 40 42 43 44 46 47 49 50 52 53 55 57 59 61 63 66 68 70 72 74 75 75 76 77 78 79 80 79 77 75 73 70
34 34 35 35 35 35 36 36 37 38 39 40 41 42 44 45 47 49 50 52 54 55 57 59 61 64 66 69 71 73 74 74 75 76 77 78 79 79 78 76 75 73 70 67
34 34 34 35 35 35 36 36 38 39 40 41 42 43 45 46 48 50 51 53 55 57 60 62 65 67 69 72 73 74 75 75 76 77 79 79 79 77 75 74 72 70 66 61
32 33 34 34 34 35 36 37 38 40 41 42 43 44 46 48 49 51 53 55 57 60 62 65 67 69 71 73 75 75 76 77 78 79 79 78 76 74 73 71 68 65 60 56
32 33 33 34 35 36 37 38 39 40 42 43 44 46 48 49 51 53 55 58 61 63 65 67 69 71 73 74 75 76 77 78 79 78 77 75 73 71 69 67 63 59 55 51
33 33 34 35 36 37 38 39 40 41 43 44 46 48 49 51 54 56 58 60 63 65 67 69 72 73 74 75 77 78 78 78 77 76 74 72 69 67 64 61 57 53 49 46
33 34 35 35 36 37 38 40 41 43 44 46 48 50 52 54 57 59 61 63 65 67 69 72 74 75 76 77 77 78 77 76 74 71 69 67 64 62 58 54 50 47 45 42
33 34 35 36 37 38 40 41 43 44 46 48 50 53 55 57 59 61 62 64 67 70 72 74 75 76 77 77 77 75 73 71 69 66 64 61 59 56 51 48 45 43 40 38
34 35 36 37 38 40 41 43 45 46 48 51 53 55 57 59 60 63 65 67 70 73 74 74 75 76 76 75 72 70 68 66 64 61 59 56 53 49 46 43 41 39 37 36
35 36 38 39 40 42 43 45 47 49 51 53 55 57 59 61 63 65 68 70 72 73 74 75 75 74 72 70 68 66 64 62 60 57 54 50 46 43 41 40 38 37 35 34
37 38 39 41 42 44 45 47 48 50 52 54 56 58 60 63 66 68 70 72 73 74 73 72 70 69 67 66 64 62 60 58 55 51 47 44 42 40 39 37 36 35 34 33
39 40 41 42 44 45 47 49 51 52 54 56 58 60 63 66 68 71 72 73 73 71 69 68 66 65 64 62 60 58 55 51 48 45 42 40 39 37 36 35 34 34 33 31
Wind_Direction
251 251 249 248 248 249 252 255 256 256 257 259 260 262 265 268 270 272 273 275 278 281 283 286 287 289 291 293 295 296 298 299 299 300 300 301 301 301 302 302 302 302 303 303
250 251 250 249 248 250 252 253 256 256 257 258 259 263 266 268 270 272 274 277 279 282 285 287 289 291 293 295 296 297 298 299 299 300 301 301 301 302 302 303 303 304 304 304
249 250 252 251 251 252 252 254 257 259 259 258 262 266 268 270 271 274 276 279 281 284 287 289 291 292 294 296 297 298 298 299 300 300 301 301 302 303 303 303 304 304 304 304
249 250 253 256 253 253 253 254 257 259 259 261 264 265 268 271 274 276 279 281 284 286 288 290 292 294 295 297 297 298 299 299 300 300 301 302 303 303 304 304 304 305 305 305
250 253 256 256 256 255 255 254 256 259 260 262 264 266 269 272 276 279 281 283 286 288 290 292 293 295 296 297 298 298 299 299 300 301 301 302 303 304 304 305 305 305 306 306
251 254 256 257 256 256 256 255 255 258 260 263 265 268 271 275 278 280 282 285 287 289 291 292 294 295 296 297 298 299 299 300 301 301 302 303 303 304 305 305 306 306 307 307
251 254 256 258 257 257 257 259 258 259 262 264 267 270 274 276 279 281 283 286 288 290 292 293 295 296 297 298 299 300 300 301 301 302 303 303 304 305 305 306 306 307 307 307
252 255 259 261 259 259 260 260 262 264 266 268 270 273 276 279 282 283 285 287 289 291 292 294 295 296 297 298 299 300 301 301 302 303 303 304 305 306 306 307 307 308 308 308
253 256 258 259 260 261 262 264 267 269 270 271 273 276 279 281 283 285 286 288 290 292 293 294 296 297 298 299 300 301 301 302 303 303 304 305 306 307 307 307 308 308 308 308
252 253 256 257 260 262 264 266 268 270 272 274 276 279 281 283 284 286 288 290 292 293 294 295 297 298 299 300 300 301 302 303 304 304 305 306 307 307 308 308 308 308 309 309
252 253 255 258 260 263 266 269 272 274 276 277 280 282 283 284 286 288 290 292 293 294 295 296 297 299 299 300 301 303 303 304 305 305 306 307 307 308 309 309 309 309 309 309
253 254 257 259 261 265 268 271 274 276 278 280 282 284 285 286 288 290 292 293 294 295 296 297 299 299 301 302 303 304 304 305 306 306 307 307 308 308 309 310 310 310 310 310
255 256 258 261 263 266 269 272 275 277 280 282 283 285 286 288 290 291 293 294 296 297 298 299 300 301 302 303 304 305 305 306 306 307 307 308 308 309 309 310 310 310 310 309
256 258 261 263 266 268 270 273 276 279 281 282 284 285 287 289 290 292 294 295 297 298 300 301 301 302 303 304 305 306 307 307 307 308 308 309 309 310 310 310 309 309 309 309
257 259 261 264 266 269 272 275 278 280 282 284 285 287 289 290 292 294 295 297 298 299 300 301 302 303 304 305 306 307 307 307 308 308 309 309 310 310 310 310 310 310 310 309
257 259 262 265 267 270 273 276 279 281 283 285 287 289 290 292 293 295 296 298 299 300 301 302 303 304 305 306 307 307 307 308 308 309 309 309 310 310 310 310 310 311 310 309
258 261 264 266 269 272 275 278 280 282 284 286 288 290 291 293 294 296 297 299 300 301 302 303 305 305 306 307 307 307 308 308 309 309 309 310 310 311 311 311 311 311 311 310
259 261 264 268 272 274 277 279 282 284 285 287 289 291 293 294 296 297 298 300 301 302 303 305 306 306 307 307 308 308 309 309 309 309 310 310 310 311 311 311 312 311 311 310
260 264 267 271 274 276 278 281 283 285 287 289 291 293 295 296 297 298 299 301 302 303 304 305 306 307 307 308 308 309 309 309 309 309 310 310 310 311 311 311 311 311 311 310
264 267 270 273 275 278 280 282 284 287 289 291 293 294 295 297 298 299 301 302 303 304 305 306 307 307 308 308 309 309 309 309 310 310 310 310 311 311 311 311 311 311 310 309
267 270 272 275 277 279 282 284 286 289 290 292 293 295 296 298 299 300 302 303 304 305 306 307 307 308 308 309 309 309 309 310 310 311 311 311 311 311 312 311 311 311 310 309
269 272 274 277 279 281 284 286 288 290 292 293 295 296 297 299 300 301 303 304 305 306 307 308 308 308 309 309 309 310 310 310 311 311 312 312 312 312 313 312 312 311 310 309
271 274 276 279 281 284 286 288 290 292 293 295 296 297 299 300 301 302 304 305 306 307 308 308 308 308 309 309 310 310 311 312 312 312 313 313 313 313 313 313 313 313 312 310
273 276 279 281 284 286 289 291 292 293 295 296 297 299 300 301 302 304 305 306 307 308 308 308 308 309 310 310 311 312 312 312 312 313 313 314 314 314 314 314 314 314 313 312
276 279 282 284 286 288 290 292 293 295 296 297 299 300 301 302 304 305 306 307 308 308 309 309 309 310 310 311 312 312 312 312 312 313 313 314 314 315 315 315 315 315 314 313
279 282 284 286 288 290 291 293 294 296 297 298 299 301 302 304 305 306 307 308 308 309 309 309 309 310 311 312 312 313 313 313 313 313 313 313 314 314 315 315 315 315 315 314
281 283 285 287 289 291 292 294 295 297 298 299 301 302 303 305 306 307 308 308 308 309 309 309 310 311 312 312 313 313 313 313 313 314 313 313 314 314 315 316 316 316 316 315
Height
5722 5723 5725 5727 5729 5730 5730 5731 5733 5735 5736 5738 5736 5736 5736 5737 5736 5736 5735 5734 5732 5730 5728 5725 5722 5719 5715 5711 5707 5702 5697 5692 5687 5682 5676 5670 5664 5658 5652 5646 5639 5633 5626 5619
5714 5715 5716 5718 5721 5722 5723 5724 5725 5726 5729 5729 5727 5727 5728 5728 5728 5727 5726 5725 5723 5721 5718 5715 5712 5708 5704 5700 5696 5691 5686 5680 5675 5669 5664 5657 5651 5645 5639 5632 5625 5618 5611 5603
5707 5708 5708 5710 5714 5715 5715 5717 5718 5718 5722 5720 5720 5720 5720 5719 5719 5718 5717 5715 5713 5711 5708 5705 5701 5697 5693 5689 5684 5679 5674 5668 5662 5657 5650 5644 5638 5631 5624 5618 5611 5603 5595 5587
5699 5701 5700 5708 5707 5707 5708 5709 5710 5711 5712 5712 5712 5712 5711 5711 5710 5709 5707 5706 5703 5700 5697 5694 5690 5686 5682 5677 5672 5667 5661 5655 5649 5643 5637 5631 5624 5617 5610 5603 5596 5588 5580 5571
5691 5692 5694 5699 5700 5700 5700 5702 5703 5703 5704 5704 5703 5703 5703 5702 5701 5700 5698 5695 5693 5690 5686 5682 5678 5674 5670 5665 5659 5654 5648 5642 5636 5630 5624 5617 5610 5603 5595 5588 5580 5572 5563 5554
5684 5684 5686 5693 5693 5691 5693 5694 5696 5695 5695 5695 5695 5695 5695 5693 5691 5689 5687 5685 5682 5678 5675 5671 5667 5662 5658 5652 5647 5641 5635 5629 5623 5616 5609 5603 5595 5588 5580 5572 5564 5556 5547 5537
5676 5677 5679 5684 5684 5684 5686 5689 5688 5687 5687 5687 5687 5686 5685 5683 5682 5679 5677 5674 5671 5667 5663 5659 5655 5650 5645 5640 5634 5628 5622 5616 5609 5602 5595 5588 5580 5573 5564 5556 5548 5539 5530 5520
5669 5670 5675 5676 5676 5677 5678 5678 5678 5678 5679 5678 5678 5677 5675 5673 5671 5669 5666 5663 5659 5656 5652 5647 5643 5638 5633 5627 5621 5615 5609 5602 5595 5588 5580 5572 5564 5556 5547 5538 5530 5521 5511 5502
5663 5666 5667 5667 5668 5669 5669 5670 5670 5670 5670 5669 5668 5667 5665 5663 5661 5658 5655 5652 5648 5644 5639 5635 5630 5625 5620 5614 5608 5602 5595 5588 5581 5573 5565 5556 5548 5539 5531 5520 5511 5501 5492 5483
5654 5657 5658 5659 5659 5660 5661 5661 5661 5661 5660 5659 5658 5657 5655 5652 5650 5647 5643 5640 5636 5632 5627 5622 5617 5612 5606 5600 5594 5587 5581 5573 5566 5558 5550 5541 5532 5522 5512 5502 5491 5481 5471 5462
5646 5648 5649 5650 5651 5652 5652 5652 5652 5651 5650 5649 5648 5646 5644 5641 5638 5635 5631 5628 5623 5619 5615 5609 5604 5598 5592 5586 5579 5573 5566 5558 5550 5542 5533 5524 5515 5504 5493 5483 5469 5459 5450 5440
5638 5640 5641 5642 5642 5642 5643 5642 5642 5641 5640 5638 5637 5635 5632 5629 5626 5623 5619 5615 5611 5606 5601 5596 5590 5584 5578 5571 5564 5558 5550 5542 5534 5525 5516 5506 5497 5488 5476 5464 5452 5439 5427 5417
5629 5630 5631 5632 5633 5633 5633 5632 5631 5631 5629 5628 5626 5623 5621 5617 5614 5611 5607 5603 5598 5593 5588 5582 5576 5570 5563 5556 5549 5542 5534 5526 5517 5507 5498 5487 5477 5467 5459 5450 5436 5422 5409 5397
5620 5621 5622 5623 5623 5623 5623 5622 5621 5620 5619 5617 5614 5612 5609 5606 5602 5599 5595 5590 5585 5580 5574 5569 5562 5556 5549 5541 5534 5526 5517 5508 5498 5489 5479 5468 5458 5447 5436 5427 5419 5409 5394 5379
5611 5612 5613 5613 5614 5613 5613 5612 5611 5609 5607 5605 5603 5600 5597 5594 5590 5586 5582 5577 5572 5566 5561 5554 5548 5541 5533 5526 5518 5509 5500 5490 5480 5470 5460 5449 5438 5427 5416 5405 5395 5386 5376 5364
5602 5602 5603 5604 5604 5604 5603 5602 5600 5599 5597 5594 5592 5589 5586 5582 5578 5574 5569 5564 5559 5553 5546 5540 5533 5526 5518 5509 5501 5492 5482 5471 5461 5451 5441 5430 5419 5408 5396 5385 5374 5364 5354 5344
5593 5594 5594 5594 5594 5593 5593 5591 5590 5588 5586 5583 5580 5577 5574 5570 5565 5561 5556 5550 5544 5538 5532 5525 5518 5510 5501 5492 5483 5474 5464 5453 5442 5432 5421 5410 5399 5388 5376 5365 5355 5345 5335 5325
5584 5584 5584 5584 5584 5583 5582 5581 5579 5577 5574 5572 5569 5565 5561 5557 5553 5548 5542 5537 5531 5524 5516 5509 5501 5493 5484 5474 5465 5455 5445 5435 5424 5413 5402 5391 5379 5368 5357 5346 5336 5326 5317 5308
5574 5575 5575 5574 5574 5573 5572 5570 5568 5566 5563 5560 5557 5553 5549 5544 5539 5534 5529 5523 5516 5510 5502 5493 5485 5476 5466 5456 5446 5436 5426 5415 5405 5394 5382 5371 5360 5350 5339 5328 5318 5309 5300 5292
5565 5565 5565 5564 5564 5562 5561 5559 5557 5554 5551 5548 5544 5540 5536 5531 5526 5520 5514 5508 5500 5493 5486 5477 5468 5458 5449 5438 5427 5417 5406 5395 5385 5374 5363 5352 5342 5332 5321 5311 5302 5293 5285 5278
5556 5555 5555 5554 5553 5552 5550 5548 5545 5542 5539 5535 5531 5527 5522 5517 5512 5506 5499 5493 5485 5476 5469 5460 5450 5440 5430 5420 5409 5398 5387 5376 5365 5354 5344 5333 5324 5314 5305 5295 5287 5279 5271 5265
5546 5545 5545 5544 5542 5541 5538 5536 5533 5530 5526 5522 5518 5514 5509 5503 5497 5491 5483 5476 5469 5460 5452 5442 5432 5422 5411 5401 5390 5379 5368 5357 5346 5336 5326 5316 5306 5298 5289 5281 5273 5266 5259 5253
5536 5535 5534 5533 5531 5529 5527 5524 5521 5517 5513 5509 5505 5500 5494 5488 5482 5475 5469 5461 5452 5443 5434 5424 5414 5403 5393 5382 5371 5360 5349 5339 5329 5319 5309 5300 5291 5283 5276 5268 5261 5255 5249 5243
5525 5524 5523 5521 5520 5517 5515 5512 5508 5504 5500 5495 5490 5485 5479 5473 5467 5459 5451 5443 5435 5425 5416 5405 5395 5384 5374 5363 5353 5342 5332 5322 5313 5304 5295 5287 5278 5271 5264 5257 5251 5245 5239 5234
5514 5513 5512 5510 5508 5505 5502 5499 5495 5491 5486 5481 5475 5469 5463 5456 5450 5443 5435 5426 5417 5407 5397 5387 5376 5366 5355 5345 5336 5326 5316 5307 5298 5290 5282 5274 5267 5261 5254 5248 5242 5236 5231 5225
5503 5502 5500 5498 5495 5492 5489 5485 5481 5477 5472 5467 5461 5455 5448 5441 5433 5425 5417 5408 5398 5388 5378 5368 5358 5348 5339 5329 5320 5310 5301 5293 5284 5276 5269 5263 5257 5251 5245 5239 5233 5228 5222 5217
5491 5489 5487 5485 5482 5479 5475 5472 5467 5463 5457 5452 5447 5440 5433 5425 5417 5408 5399 5390 5380 5370 5361 5351 5342 5332 5323 5314 5305 5296 5288 5280 5272 5265 5259 5253 5247 5242 5236 5230 5225 5220 5215 5210